• Em Portugal
  • Lista de países
  • Para 7 dias
  • Temperatura da água
  • Mapas de satélite
  • Mapa do tempo
  • Widgets de tempo
  • user-avatar
    Iniciar Sessão

    Previsão horária em Mosul

    Hoje, 21 Setembro, Quinta-feira

    Tempo Temperatura Precipitação Vento Pressão Humidade
    00:00 +35°C° 0 mm 1 m/s 728 mmHg 12%
    01:00 +35°C° 0 mm 2 m/s 728 mmHg 13%
    02:00 +34°C° 0 mm 2 m/s 728 mmHg 14%
    03:00 +33°C° 0 mm 1 m/s 728 mmHg 15%
    04:00 +32°C° 0 mm 1 m/s 728 mmHg 16%
    05:00 +32°C° 0 mm 1 m/s 728 mmHg 16%
    06:00 +31°C° 0 mm 1 m/s 728 mmHg 17%
    07:00 +34°C° 0 mm 2 m/s 728 mmHg 15%
    08:00 +36°C° 0 mm 2 m/s 728 mmHg 13%
    09:00 +38°C° 0 mm 2 m/s 729 mmHg 12%
    10:00 +40°C° 0 mm 2 m/s 728 mmHg 11%
    11:00 +41°C° 0 mm 2 m/s 728 mmHg 9%
    12:00 +43°C° 0 mm 2 m/s 728 mmHg 8%
    13:00 +43°C° 0 mm 2 m/s 728 mmHg 8%
    14:00 +45°C° 0 mm 3 m/s 727 mmHg 7%
    15:00 +47°C° 0 mm 4 m/s 727 mmHg 7%
    16:00 +44°C° 0 mm 4 m/s 727 mmHg 8%
    17:00 +43°C° 0 mm 4 m/s 727 mmHg 10%
    18:00 +42°C° 0 mm 4 m/s 727 mmHg 11%
    19:00 +41°C° 0 mm 5 m/s 727 mmHg 15%
    20:00 +39°C° 0 mm 5 m/s 727 mmHg 18%
    21:00 +38°C° 0 mm 6 m/s 727 mmHg 21%
    22:00 +36°C° 0 mm 5 m/s 727 mmHg 23%
    23:00 +35°C° 0 mm 5 m/s 727 mmHg 24%

    Amanhã, 22 Setembro, Sexta-feira

    Tempo Temperatura Precipitação Vento Pressão Humidade
    00:00 +34°C° 0 mm 4 m/s 727 mmHg 26%
    01:00 +34°C° 0 mm 4 m/s 727 mmHg 27%
    02:00 +33°C° 0 mm 3 m/s 727 mmHg 28%
    03:00 +31°C° 0 mm 3 m/s 727 mmHg 29%
    04:00 +31°C° 0 mm 3 m/s 727 mmHg 32%
    05:00 +30°C° 0 mm 2 m/s 727 mmHg 34%
    06:00 +30°C° 0 mm 2 m/s 727 mmHg 37%
    07:00 +31°C° 0 mm 3 m/s 728 mmHg 37%
    08:00 +33°C° 0 mm 3 m/s 728 mmHg 36%
    09:00 +34°C° 0 mm 3 m/s 728 mmHg 36%
    10:00 +35°C° 0 mm 4 m/s 728 mmHg 33%
    11:00 +37°C° 0 mm 4 m/s 728 mmHg 29%
    12:00 +39°C° 0 mm 5 m/s 728 mmHg 25%
    13:00 +39°C° 0 mm 5 m/s 728 mmHg 23%
    14:00 +40°C° 0 mm 5 m/s 728 mmHg 22%
    15:00 +40°C° 0 mm 5 m/s 727 mmHg 20%
    16:00 +40°C° 0 mm 5 m/s 727 mmHg 20%
    17:00 +39°C° 0 mm 5 m/s 727 mmHg 21%
    18:00 +38°C° 0 mm 4 m/s 727 mmHg 21%
    19:00 +37°C° 0 mm 4 m/s 728 mmHg 21%
    20:00 +36°C° 0 mm 3 m/s 728 mmHg 21%
    21:00 +36°C° 0 mm 3 m/s 728 mmHg 22%
    22:00 +35°C° 0 mm 3 m/s 729 mmHg 22%
    23:00 +34°C° 0 mm 4 m/s 729 mmHg 22%

    Depois de amanhã, 23 Setembro, Sábado

    Tempo Temperatura Precipitação Vento Pressão Humidade
    00:00 +34°C° 0 mm 4 m/s 729 mmHg 22%
    01:00 +33°C° 0 mm 4 m/s 729 mmHg 24%
    02:00 +32°C° 0 mm 4 m/s 729 mmHg 27%
    03:00 +30°C° 0 mm 4 m/s 729 mmHg 29%
    04:00 +29°C° 0 mm 3 m/s 729 mmHg 31%
    05:00 +28°C° 0 mm 3 m/s 729 mmHg 33%
    06:00 +27°C° 0 mm 3 m/s 730 mmHg 35%
    07:00 +29°C° 0 mm 3 m/s 730 mmHg 33%
    08:00 +30°C° 0 mm 3 m/s 730 mmHg 31%
    09:00 +31°C° 0 mm 3 m/s 731 mmHg 28%
    10:00 +34°C° 0 mm 4 m/s 731 mmHg 24%
    11:00 +35°C° 0 mm 4 m/s 731 mmHg 19%
    12:00 +37°C° 0 mm 4 m/s 731 mmHg 14%
    13:00 +37°C° 0 mm 5 m/s 731 mmHg 13%
    14:00 +39°C° 0 mm 5 m/s 731 mmHg 11%
    15:00 +39°C° 0 mm 6 m/s 730 mmHg 10%
    16:00 +37°C° 0 mm 5 m/s 730 mmHg 11%
    17:00 +36°C° 0 mm 5 m/s 730 mmHg 12%
    18:00 +35°C° 0 mm 4 m/s 731 mmHg 13%
    19:00 +34°C° 0 mm 4 m/s 731 mmHg 15%
    20:00 +33°C° 0 mm 4 m/s 731 mmHg 18%
    21:00 +32°C° 0 mm 4 m/s 731 mmHg 20%
    22:00 +32°C° 0 mm 4 m/s 731 mmHg 21%
    23:00 +30°C° 0 mm 4 m/s 731 mmHg 23%

    24 Setembro, Domingo

    Tempo Temperatura Precipitação Vento Pressão Humidade
    00:00 +29°C° 0 mm 3 m/s 731 mmHg 24%
    01:00 +29°C° 0 mm 3 m/s 731 mmHg 25%
    02:00 +28°C° 0 mm 3 m/s 731 mmHg 25%
    03:00 +27°C° 0 mm 3 m/s 730 mmHg 26%
    04:00 +27°C° 0 mm 3 m/s 730 mmHg 27%
    05:00 +26°C° 0 mm 2 m/s 730 mmHg 27%
    06:00 +26°C° 0 mm 2 m/s 731 mmHg 28%
    07:00 +28°C° 0 mm 2 m/s 731 mmHg 25%
    08:00 +29°C° 0 mm 2 m/s 731 mmHg 22%
    09:00 +31°C° 0 mm 2 m/s 732 mmHg 19%
    10:00 +32°C° 0 mm 2 m/s 731 mmHg 17%
    11:00 +34°C° 0 mm 3 m/s 731 mmHg 15%
    12:00 +36°C° 0 mm 3 m/s 731 mmHg 13%
    13:00 +36°C° 0 mm 3 m/s 731 mmHg 12%
    14:00 +37°C° 0 mm 3 m/s 731 mmHg 11%
    15:00 +38°C° 0 mm 3 m/s 730 mmHg 9%
    16:00 +37°C° 0 mm 3 m/s 730 mmHg 10%
    17:00 +36°C° 0 mm 2 m/s 730 mmHg 10%
    18:00 +35°C° 0 mm 2 m/s 730 mmHg 11%
    19:00 +34°C° 0 mm 2 m/s 730 mmHg 11%
    20:00 +32°C° 0 mm 2 m/s 730 mmHg 12%
    21:00 +31°C° 0 mm 2 m/s 731 mmHg 13%
    22:00 +30°C° 0 mm 2 m/s 730 mmHg 13%
    23:00 +30°C° 0 mm 2 m/s 730 mmHg 14%

    25 Setembro, Segunda-feira

    Tempo Temperatura Precipitação Vento Pressão Humidade
    00:00 +29°C° 0 mm 2 m/s 730 mmHg 15%
    01:00 +29°C° 0 mm 2 m/s 730 mmHg 15%
    02:00 +28°C° 0 mm 2 m/s 730 mmHg 15%
    03:00 +28°C° 0 mm 3 m/s 729 mmHg 15%
    04:00 +27°C° 0 mm 2 m/s 730 mmHg 15%
    05:00 +26°C° 0 mm 2 m/s 730 mmHg 16%
    06:00 +26°C° 0 mm 1 m/s 730 mmHg 16%
    07:00 +28°C° 0 mm 1 m/s 730 mmHg 14%
    08:00 +30°C° 0 mm 1 m/s 730 mmHg 12%
    09:00 +32°C° 0 mm 1 m/s 731 mmHg 10%
    10:00 +34°C° 0 mm 1 m/s 731 mmHg 9%
    11:00 +35°C° 0 mm 1 m/s 731 mmHg 8%
    12:00 +36°C° 0 mm 1 m/s 730 mmHg 7%
    13:00 +37°C° 0 mm 1 m/s 730 mmHg 6%
    14:00 +39°C° 0 mm 1 m/s 730 mmHg 5%
    15:00 +39°C° 0 mm 1 m/s 729 mmHg 5%
    16:00 +37°C° 0 mm 1 m/s 729 mmHg 5%
    17:00 +34°C° 0 mm 0 m/s 729 mmHg 6%
    18:00 +33°C° 0 mm 0 m/s 729 mmHg 6%
    19:00 +32°C° 0 mm 0 m/s 729 mmHg 7%
    20:00 +31°C° 0 mm 0 m/s 729 mmHg 7%
    21:00 +30°C° 0 mm 0 m/s 729 mmHg 7%
    22:00 +32°C° 0 mm 1 m/s 729 mmHg 7%
    23:00 +32°C° 0 mm 1 m/s 729 mmHg 7%

    26 Setembro, Terça-feira

    Tempo Temperatura Precipitação Vento Pressão Humidade
    00:00 +32°C° 0 mm 2 m/s 729 mmHg 7%
    01:00 +31°C° 0 mm 2 m/s 728 mmHg 7%
    02:00 +31°C° 0 mm 2 m/s 728 mmHg 7%
    03:00 +31°C° 0 mm 2 m/s 728 mmHg 7%
    04:00 +30°C° 0 mm 3 m/s 728 mmHg 7%
    05:00 +30°C° 0 mm 3 m/s 728 mmHg 7%
    06:00 +29°C° 0 mm 3 m/s 728 mmHg 7%
    07:00 +31°C° 0 mm 3 m/s 729 mmHg 6%
    08:00 +34°C° 0 mm 3 m/s 729 mmHg 5%
    09:00 +36°C° 0 mm 3 m/s 729 mmHg 5%
    10:00 +37°C° 0 mm 3 m/s 729 mmHg 5%
    11:00 +39°C° 0 mm 3 m/s 729 mmHg 6%
    12:00 +41°C° 0 mm 4 m/s 729 mmHg 7%
    13:00 +41°C° 0 mm 4 m/s 729 mmHg 8%
    14:00 +41°C° 0 mm 4 m/s 729 mmHg 9%
    15:00 +42°C° 0 mm 4 m/s 729 mmHg 10%
    16:00 +41°C° 0 mm 4 m/s 729 mmHg 12%
    17:00 +38°C° 0 mm 4 m/s 729 mmHg 14%
    18:00 +37°C° 0 mm 4 m/s 729 mmHg 16%
    19:00 +36°C° 0 mm 5 m/s 729 mmHg 18%
    20:00 +35°C° 0 mm 5 m/s 729 mmHg 20%
    21:00 +34°C° 0 mm 5 m/s 730 mmHg 22%
    22:00 +33°C° 0 mm 5 m/s 730 mmHg 25%
    23:00 +32°C° 0 mm 5 m/s 730 mmHg 27%
    Mostrar mais